[[{"header":{"parameterUnit":"m.s-1","parameterCategory":2,"la1":30.2991,"la2":30.254,"lo1":-89.0895,"lo2":-89.0444,"dy":0.0017,"dx":0.0017,"nx":28,"ny":28,"refTime":"2024-09-24T21:00:00:Z","depth":"0","parameterNumber":2,"parameterNumberName":"U-component_of_CURRENTS"},"data":[0,0,0,0,0,0,0,0,0,0,0,0,0,0,0,0,0,0,0,0,0,0,0,0,0,0,0,0,0,0,0,0,0,0,0,0,0,0,0,0,0,0,0,0,0,0,0,0,0,0,0,0,0,0,0,0,0,0,-0.2389,-0.2389,0,-0.2445,-0.2445,-0.2446,-0.2408,-0.2406,-0.2405,-0.2403,-0.2474,-0.2477,-0.248,0,0,0,0,0,0,0,0,0,0,0,0,0,-0.2304,-0.2306,-0.2389,-0.2389,-0.239,-0.2445,-0.2445,-0.2446,-0.2408,-0.2406,-0.2404,-0.2402,-0.2472,-0.2476,-0.2481,0,0,0,0,0,0,0,0,0,0,0,0,0,-0.2348,-0.2306,-0.2389,-0.2378,-0.2378,-0.2444,-0.2445,-0.2446,-0.2409,-0.2406,-0.2404,-0.2401,-0.2471,-0.2476,-0.2481,-0.2563,0,0,-0.2497,-0.2499,0,0,0,0,0,0,0,0,-0.2345,-0.2351,-0.2379,-0.2379,-0.2379,-0.2417,-0.2441,-0.2486,-0.2409,-0.2397,-0.2403,-0.24,-0.2458,-0.2464,-0.2479,-0.2566,-0.2569,-0.2497,-0.25,-0.2503,-0.2504,0,0,0,0,0,0,0,-0.2342,-0.2349,-0.241,-0.238,-0.238,-0.239,-0.2393,-0.245,-0.2441,-0.2397,-0.2395,-0.2403,-0.2458,-0.2474,-0.2481,-0.257,-0.2497,-0.2502,-0.2505,-0.2507,-0.269,-0.2692,0,0,0,0,0,0,-0.2337,-0.2346,-0.2408,-0.2412,-0.2356,-0.2393,-0.2397,-0.2407,-0.244,-0.2442,-0.2405,-0.2401,-0.2467,-0.2475,-0.2483,-0.2497,-0.2503,-0.2507,-0.251,-0.2689,-0.2691,-0.2693,0,0,0,0,0,0,-0.2335,-0.2342,-0.2406,-0.238,-0.2389,-0.2397,-0.241,-0.241,-0.2415,-0.2445,-0.2447,-0.2409,-0.2465,-0.2476,-0.2519,-0.2502,-0.251,-0.2514,-0.2686,-0.2689,-0.2692,-0.258,0,0,0,0,0,0,-0.2333,-0.2341,-0.2347,-0.238,-0.239,-0.2429,-0.2412,-0.2412,-0.2425,-0.242,-0.2451,-0.2454,-0.2464,-0.2511,-0.2524,-0.251,-0.2518,-0.2684,-0.2688,-0.2691,-0.2581,-0.2578,-0.2576,0,0,0,0,0,-0.2329,-0.2344,-0.2347,-0.2355,-0.2398,-0.243,-0.2436,-0.2433,-0.2427,-0.2429,-0.245,-0.2453,-0.2541,-0.2517,-0.2531,-0.2518,-0.2683,-0.2687,-0.2691,-0.2582,-0.2579,-0.2576,0,0,0,0,0,0,-0.2311,-0.2343,-0.2346,-0.237,-0.2391,-0.2423,-0.243,-0.2439,-0.2461,-0.2456,-0.2478,-0.2485,-0.2516,-0.2557,-0.2529,-0.259,-0.2614,-0.2621,-0.2527,-0.2524,-0.2521,-0.2507,-0.2523,0,0,0,0,0,-0.2313,-0.2326,-0.236,-0.2376,-0.2389,-0.2414,-0.2428,-0.2431,-0.2457,-0.2462,-0.2483,-0.2519,-0.2553,-0.2565,-0.261,-0.2649,-0.2654,-0.2657,-0.2654,-0.2651,-0.2656,-0.2624,-0.2616,-0.2706,-0.2706,-0.2706,0,0,-0.231,-0.2329,-0.2337,-0.2373,-0.239,-0.2411,-0.2415,-0.2437,-0.2444,-0.2473,-0.2489,-0.2517,-0.2568,-0.2591,-0.261,-0.2614,-0.2633,-0.2656,-0.2652,-0.266,-0.2627,-0.2617,-0.2608,-0.2709,-0.2708,-0.2708,0,0,-0.2309,-0.233,-0.2339,-0.2361,-0.239,-0.2408,-0.2415,-0.2447,-0.2446,-0.2482,-0.2494,-0.2504,-0.2579,-0.2577,-0.2596,-0.2622,-0.2624,-0.2653,-0.2612,-0.2579,-0.2569,-0.256,-0.2552,-0.2543,-0.2641,-0.2641,-0.2641,0,-0.2302,-0.2321,-0.2347,-0.2365,-0.2378,-0.2406,-0.2419,-0.2437,-0.2473,-0.2474,-0.2476,-0.2536,-0.2564,-0.257,-0.2569,-0.2605,-0.2604,-0.2601,-0.2566,-0.2558,-0.2551,-0.2544,-0.2536,-0.2636,-0.2637,-0.2637,-0.2638,0,-0.2309,-0.2325,-0.2335,-0.2361,-0.2381,-0.2399,-0.2427,-0.244,-0.245,-0.2458,-0.2468,-0.2492,-0.2519,-0.2527,-0.2555,-0.253,-0.2552,-0.256,-0.255,-0.2533,-0.253,-0.2523,-0.2629,-0.2631,-0.2632,-0.2633,0,0,-0.2281,-0.2329,-0.2329,-0.234,-0.2379,-0.2396,-0.2413,-0.2428,-0.2433,-0.2441,-0.2434,-0.2456,-0.2455,-0.2481,-0.2497,-0.2465,-0.2406,-0.2491,-0.2492,-0.2442,-0.2348,-0.2342,-0.2335,-0.2393,-0.2392,-0.2391,-0.2361,0,-0.2272,-0.2297,-0.2324,-0.2342,-0.2358,-0.2388,-0.2402,-0.2418,-0.2432,-0.2437,-0.2424,-0.2439,-0.2442,-0.2449,-0.241,-0.2432,-0.2386,-0.2415,-0.2411,-0.2411,-0.2371,-0.2326,-0.2267,-0.2234,-0.2355,-0.2354,-0.2353,0,-0.2258,-0.2278,-0.2295,-0.2331,-0.234,-0.2354,-0.2375,-0.2395,-0.2408,-0.2417,-0.2403,-0.2416,-0.2391,-0.2392,-0.235,-0.2371,-0.2352,-0.2344,-0.2343,-0.2373,-0.2392,-0.2278,-0.2218,-0.2211,-0.2344,-0.2344,-0.2345,0,-0.2211,-0.2252,-0.226,-0.2275,-0.2324,-0.2329,-0.2351,-0.2376,-0.2392,-0.2402,-0.2414,-0.2384,-0.2387,-0.2341,-0.234,-0.2341,-0.2296,-0.2292,-0.2258,-0.2259,-0.223,-0.223,-0.2126,-0.223,-0.223,-0.223,-0.223,0,-0.2183,-0.2188,-0.2239,-0.2245,-0.2253,-0.23,-0.231,-0.2333,-0.2366,-0.2374,-0.2395,-0.2394,-0.2373,-0.2357,-0.2329,-0.2283,-0.2278,-0.2243,-0.2239,-0.2194,-0.2192,-0.2206,-0.2216,-0.2229,-0.2229,-0.223,-0.223,0,-0.2122,-0.216,-0.2172,-0.2219,-0.2231,-0.2234,-0.2288,-0.2297,-0.2347,-0.2361,-0.2366,-0.24,-0.2381,-0.2363,-0.2315,-0.2281,-0.2197,-0.2214,-0.2181,-0.2172,-0.2123,-0.2132,-0.2026,-0.1973,-0.2155,-0.2155,-0.2154,0,-0.2089,-0.209,-0.2136,-0.2138,-0.2155,-0.2179,-0.2191,-0.2262,-0.2281,-0.2353,-0.2349,-0.2369,-0.2356,-0.2311,-0.2266,-0.2206,-0.2169,-0.2111,-0.2087,-0.2099,-0.2106,-0.2089,-0.205,-0.2009,-0.2007,-0.2006,-0.2005,0,-0.2014,-0.2032,-0.2041,-0.2054,-0.2066,-0.2088,-0.2119,-0.2138,-0.2218,-0.225,-0.2276,-0.2282,-0.2287,-0.2221,-0.2184,-0.2127,-0.2062,-0.2082,-0.2082,-0.1969,-0.1953,-0.1909,-0.2079,-0.1993,-0.1994,-0.1995,-0.1996,-0.1996,-0.1939,-0.1928,-0.1941,-0.1941,-0.1961,-0.1965,-0.1945,-0.2009,-0.2033,-0.2072,-0.215,-0.2176,-0.2175,-0.2121,-0.2069,-0.1991,-0.1987,-0.1922,-0.1928,-0.1909,-0.1853,-0.2015,-0.1936,-0.1937,-0.1937,-0.1938,-0.1939,0,-0.1828,-0.1824,-0.1824,-0.1819,-0.1793,-0.1845,-0.1863,-0.1836,-0.1829,-0.1945,-0.1973,-0.2068,-0.2006,-0.201,-0.1956,-0.1869,-0.1797,-0.1808,-0.1761,-0.1725,-0.1851,-0.1842,-0.1753,-0.1753,-0.1753,-0.1753,-0.1753,-0.1753,-0.1765,-0.1719,-0.1722,-0.1639,-0.1635,-0.1564,-0.1546,-0.1544,-0.16,-0.1681,-0.1813,-0.1952,-0.1973,-0.2034,-0.1913,-0.1814,-0.1734,-0.1671,-0.1672,-0.1778,-0.1789,-0.18,-0.1792,-0.1694,-0.1694,-0.1491,-0.149,-0.1489]},{"header":{"parameterUnit":"m.s-1","parameterCategory":2,"la1":30.2991,"la2":30.254,"lo1":-89.0895,"lo2":-89.0444,"dy":0.0017,"dx":0.0017,"nx":28,"ny":28,"refTime":"2024-09-24T21:00:00:Z","depth":"0","parameterNumber":3,"parameterNumberName":"V-component_of_CURRENTS"},"data":[0,0,0,0,0,0,0,0,0,0,0,0,0,0,0,0,0,0,0,0,0,0,0,0,0,0,0,0,0,0,0,0,0,0,0,0,0,0,0,0,0,0,0,0,0,0,0,0,0,0,0,0,0,0,0,0,0,0,-0.0392,-0.0391,0,-0.0318,-0.0317,-0.0316,-0.0247,-0.0246,-0.0245,-0.0244,-0.013,-0.0128,-0.0126,0,0,0,0,0,0,0,0,0,0,0,0,0,-0.0453,-0.0453,-0.0392,-0.0391,-0.039,-0.0318,-0.0317,-0.0316,-0.0247,-0.0246,-0.0245,-0.0244,-0.0131,-0.0128,-0.0125,0,0,0,0,0,0,0,0,0,0,0,0,0,-0.0408,-0.0453,-0.0392,-0.0347,-0.0342,-0.0318,-0.0317,-0.0316,-0.0247,-0.0246,-0.0244,-0.0243,-0.0132,-0.0128,-0.0125,-0.0131,0,0,-0.0115,-0.0113,0,0,0,0,0,0,0,0,-0.0411,-0.0406,-0.0354,-0.035,-0.0344,-0.029,-0.0297,-0.0252,-0.0247,-0.0283,-0.0244,-0.0242,-0.0181,-0.0173,-0.0163,-0.0126,-0.0121,-0.0115,-0.0113,-0.0111,-0.011,0,0,0,0,0,0,0,-0.0414,-0.0409,-0.0363,-0.0353,-0.0347,-0.0323,-0.0316,-0.0288,-0.024,-0.028,-0.0275,-0.0267,-0.0178,-0.0166,-0.016,-0.0119,-0.0115,-0.0112,-0.011,-0.0108,-0.0055,-0.0055,0,0,0,0,0,0,-0.0425,-0.0412,-0.0365,-0.036,-0.0375,-0.0323,-0.0315,-0.0309,-0.024,-0.0229,-0.0268,-0.0264,-0.0173,-0.0164,-0.0155,-0.0144,-0.0111,-0.0108,-0.0106,-0.0054,-0.0055,-0.0055,0,0,0,0,0,0,-0.0427,-0.0422,-0.0368,-0.0384,-0.0375,-0.0324,-0.0318,-0.0308,-0.0292,-0.0232,-0.0219,-0.0261,-0.0171,-0.016,-0.013,-0.014,-0.0107,-0.0104,-0.0053,-0.0054,-0.0055,-0.0131,0,0,0,0,0,0,-0.0429,-0.0423,-0.0426,-0.0385,-0.0375,-0.0358,-0.0319,-0.0308,-0.0289,-0.0283,-0.0222,-0.021,-0.0169,-0.0135,-0.0127,-0.0134,-0.0101,-0.0053,-0.0054,-0.0055,-0.0128,-0.0134,-0.014,0,0,0,0,0,-0.0432,-0.0441,-0.0427,-0.0421,-0.0379,-0.0359,-0.0352,-0.0311,-0.029,-0.029,-0.0247,-0.0212,-0.0136,-0.0133,-0.0123,-0.013,-0.0052,-0.0053,-0.0055,-0.0125,-0.0133,-0.014,0,0,0,0,0,0,-0.047,-0.0434,-0.0417,-0.0415,-0.0391,-0.0347,-0.0344,-0.0318,-0.0285,-0.0278,-0.0219,-0.0205,-0.0185,-0.0149,-0.0148,-0.0118,-0.0088,-0.0088,-0.0145,-0.0152,-0.0158,-0.016,-0.0098,0,0,0,0,0,-0.0482,-0.0478,-0.0441,-0.0441,-0.0431,-0.0391,-0.0378,-0.0352,-0.0317,-0.03,-0.0259,-0.0216,-0.0185,-0.0161,-0.0131,-0.0114,-0.0082,-0.0112,-0.0118,-0.0124,-0.0118,-0.0087,-0.009,-0.006,-0.006,-0.006,0,0,-0.0496,-0.0477,-0.0474,-0.0449,-0.0427,-0.0422,-0.038,-0.0366,-0.0359,-0.0295,-0.0276,-0.024,-0.0187,-0.0169,-0.0156,-0.0136,-0.0118,-0.0125,-0.013,-0.0121,-0.0089,-0.0092,-0.0095,-0.006,-0.006,-0.006,0,0,-0.0529,-0.0508,-0.0517,-0.0502,-0.0475,-0.0449,-0.0449,-0.0411,-0.039,-0.037,-0.0324,-0.0293,-0.0244,-0.0208,-0.0183,-0.0204,-0.0157,-0.0197,-0.0221,-0.0192,-0.0194,-0.0196,-0.0171,-0.0169,-0.0193,-0.0194,-0.0194,0,-0.0549,-0.0552,-0.0518,-0.0523,-0.0515,-0.0466,-0.0475,-0.0451,-0.0408,-0.0393,-0.0372,-0.0302,-0.0261,-0.023,-0.0234,-0.0218,-0.0194,-0.0199,-0.0201,-0.0201,-0.0201,-0.0175,-0.0172,-0.0197,-0.0197,-0.0197,-0.0196,0,-0.0585,-0.0588,-0.0593,-0.0581,-0.0569,-0.057,-0.0533,-0.0518,-0.0487,-0.0455,-0.0422,-0.0367,-0.0319,-0.0308,-0.0273,-0.0257,-0.0238,-0.022,-0.0184,-0.0209,-0.018,-0.0176,-0.0203,-0.0201,-0.02,-0.0199,0,0,-0.0629,-0.0621,-0.0623,-0.0629,-0.0601,-0.0596,-0.0586,-0.056,-0.055,-0.0505,-0.0486,-0.0432,-0.0394,-0.0363,-0.032,-0.0289,-0.0275,-0.0256,-0.0253,-0.0235,-0.0215,-0.0167,-0.0158,-0.0259,-0.0258,-0.0258,-0.0198,0,-0.0668,-0.0697,-0.0676,-0.0698,-0.0709,-0.0665,-0.0659,-0.0628,-0.0589,-0.0559,-0.0495,-0.0462,-0.0417,-0.0395,-0.0359,-0.0294,-0.0266,-0.0293,-0.0189,-0.0185,-0.0143,-0.0152,-0.0135,-0.0077,-0.0194,-0.0193,-0.0193,0,-0.071,-0.0724,-0.0757,-0.0757,-0.0757,-0.0758,-0.0735,-0.0722,-0.0664,-0.0633,-0.058,-0.0524,-0.0464,-0.0429,-0.0328,-0.0348,-0.0288,-0.0238,-0.0234,-0.0156,-0.013,-0.0067,-0.0065,0.0033,-0.0186,-0.0186,-0.0187,0,-0.0762,-0.0778,-0.0808,-0.0809,-0.08,-0.0803,-0.0792,-0.0746,-0.0734,-0.0675,-0.0653,-0.0573,-0.0527,-0.0446,-0.0325,-0.0332,-0.0212,-0.0208,-0.0112,-0.0108,-0.0053,-0.0045,0.0057,-0.0145,-0.0145,-0.0145,-0.0146,0,-0.0813,-0.0835,-0.0836,-0.0854,-0.0884,-0.0855,-0.0866,-0.084,-0.0797,-0.0777,-0.0695,-0.0652,-0.0529,-0.0435,-0.0341,-0.0202,-0.0222,-0.0111,-0.0086,-0.008,-0.0075,0.0046,0.0093,-0.0143,-0.0144,-0.0144,-0.0145,0,-0.0864,-0.0865,-0.09,-0.0907,-0.0911,-0.0931,-0.0921,-0.0922,-0.0875,-0.0845,-0.0827,-0.0711,-0.0582,-0.045,-0.0304,-0.0216,-0.0028,-0.0044,-0.0043,-0.0018,0.0154,0.0195,0.0351,0.0385,0.006,0.0061,0.0063,0,-0.0894,-0.0918,-0.0946,-0.0969,-0.0974,-0.0994,-0.1003,-0.0968,-0.0957,-0.0869,-0.0854,-0.0723,-0.0611,-0.0375,-0.0199,-0.0025,0.0048,0.0089,0.0084,0.0176,0.024,0.0273,0.0292,0.0118,0.012,0.0121,0.0122,0,-0.0944,-0.0951,-0.0979,-0.1031,-0.1053,-0.1076,-0.1079,-0.1083,-0.1025,-0.0978,-0.0879,-0.078,-0.0536,-0.031,-0.0076,0.0028,0.0165,0.0123,0.0219,0.0303,0.0345,0.0385,0.0062,0.0135,0.0134,0.0133,0.0132,0.0131,-0.0971,-0.1005,-0.1039,-0.1084,-0.1115,-0.1139,-0.1149,-0.1132,-0.1101,-0.1009,-0.0904,-0.0732,-0.0407,-0.0064,0.005,0.0306,0.0285,0.0378,0.0421,0.0446,0.0486,0.0194,0.0296,0.0296,0.0296,0.0296,0.0295,0,-0.1,-0.1036,-0.1087,-0.1134,-0.117,-0.1173,-0.1182,-0.117,-0.1124,-0.1015,-0.0894,-0.0518,-0.0198,0.0087,0.0465,0.06,0.0601,0.0663,0.0705,0.0706,0.0451,0.046,0.0602,0.0602,0.0602,0.0602,0.0602,0.0601,-0.1014,-0.1067,-0.1096,-0.116,-0.1192,-0.1212,-0.1212,-0.1183,-0.111,-0.092,-0.0706,-0.0542,-0.0074,0.057,0.089,0.0899,0.0978,0.0989,0.1028,0.0848,0.0823,0.08,0.082,0.1035,0.1035,0.1252,0.1254,0.1256]}],[{"header":{"parameterUnit":"m.s-1","parameterCategory":2,"la1":30.2991,"la2":30.254,"lo1":-89.0895,"lo2":-89.0444,"dy":0.0017,"dx":0.0017,"nx":28,"ny":28,"refTime":"2024-09-24T21:00:00:Z","depth":"2","parameterNumber":2,"parameterNumberName":"U-component_of_CURRENTS"},"data":[0,0,0,0,0,0,0,0,0,0,0,0,0,0,0,0,0,0,0,0,0,0,0,0,0,0,0,0,0,0,0,0,0,0,0,0,0,0,0,0,0,0,0,0,0,0,0,0,0,0,0,0,0,0,0,0,0,0,-0.2314,-0.2314,0,-0.2369,-0.2369,-0.237,-0.2337,-0.2335,-0.2334,-0.2332,-0.2391,-0.2394,-0.2397,0,0,0,0,0,0,0,0,0,0,0,0,0,-0.2231,-0.2232,-0.2313,-0.2314,-0.2315,-0.2369,-0.2369,-0.237,-0.2337,-0.2335,-0.2333,-0.2332,-0.239,-0.2393,-0.2397,0,0,0,0,0,0,0,0,0,0,0,0,0,-0.2274,-0.2233,-0.2313,-0.2305,-0.2305,-0.2368,-0.2369,-0.237,-0.2337,-0.2335,-0.2333,-0.2331,-0.2389,-0.2393,-0.2397,-0.2471,0,0,-0.2411,-0.2413,0,0,0,0,0,0,0,0,-0.2271,-0.2277,-0.2306,-0.2306,-0.2306,-0.2344,-0.2362,-0.2404,-0.2338,-0.2325,-0.2332,-0.233,-0.2378,-0.2383,-0.2397,-0.2474,-0.2476,-0.2412,-0.2414,-0.2416,-0.2417,0,0,0,0,0,0,0,-0.2268,-0.2275,-0.2335,-0.2307,-0.2307,-0.2317,-0.232,-0.237,-0.2363,-0.2325,-0.2323,-0.2331,-0.2377,-0.2393,-0.2399,-0.2477,-0.2411,-0.2415,-0.2418,-0.242,-0.2595,-0.2597,0,0,0,0,0,0,-0.2263,-0.2272,-0.2333,-0.2336,-0.2284,-0.232,-0.2323,-0.2334,-0.2362,-0.2364,-0.2333,-0.233,-0.2387,-0.2393,-0.24,-0.2413,-0.2416,-0.242,-0.2423,-0.2593,-0.2595,-0.2597,0,0,0,0,0,0,-0.2261,-0.2268,-0.2331,-0.2305,-0.2314,-0.2324,-0.2336,-0.2336,-0.2343,-0.2368,-0.237,-0.2339,-0.2385,-0.2394,-0.2431,-0.2418,-0.2422,-0.2426,-0.259,-0.2593,-0.2596,-0.2488,0,0,0,0,0,0,-0.2259,-0.2267,-0.2273,-0.2305,-0.2315,-0.2353,-0.2338,-0.2339,-0.2352,-0.2348,-0.2375,-0.2377,-0.2384,-0.2424,-0.2435,-0.2424,-0.243,-0.2588,-0.2592,-0.2595,-0.2489,-0.2487,-0.2485,0,0,0,0,0,-0.2256,-0.227,-0.2274,-0.2281,-0.2323,-0.2354,-0.236,-0.2358,-0.2355,-0.2357,-0.2374,-0.2376,-0.2456,-0.2429,-0.2442,-0.2431,-0.2586,-0.2591,-0.2595,-0.249,-0.2488,-0.2485,0,0,0,0,0,0,-0.2238,-0.2269,-0.2273,-0.2296,-0.2317,-0.2348,-0.2356,-0.2366,-0.2385,-0.2381,-0.2399,-0.2404,-0.2432,-0.2471,-0.2442,-0.2503,-0.2524,-0.2532,-0.2441,-0.2439,-0.2437,-0.2424,-0.2434,0,0,0,0,0,-0.224,-0.2253,-0.2286,-0.2302,-0.2315,-0.234,-0.2354,-0.2358,-0.2382,-0.2387,-0.2405,-0.2439,-0.2469,-0.248,-0.252,-0.2557,-0.256,-0.2567,-0.2565,-0.2562,-0.2568,-0.2536,-0.2529,-0.2612,-0.2612,-0.2612,0,0,-0.2237,-0.2256,-0.2264,-0.2299,-0.2317,-0.2336,-0.2342,-0.2364,-0.2372,-0.2396,-0.2411,-0.2436,-0.2482,-0.2504,-0.2522,-0.2526,-0.2546,-0.2568,-0.2564,-0.2572,-0.254,-0.2531,-0.2522,-0.2615,-0.2614,-0.2614,0,0,-0.2237,-0.2257,-0.2267,-0.2288,-0.2317,-0.2335,-0.2342,-0.2375,-0.2375,-0.2409,-0.2418,-0.2427,-0.2497,-0.2494,-0.2511,-0.2538,-0.2539,-0.257,-0.2535,-0.2502,-0.2493,-0.2485,-0.2477,-0.2469,-0.2561,-0.2561,-0.2561,0,-0.2231,-0.2249,-0.2274,-0.2292,-0.2305,-0.2333,-0.2347,-0.2364,-0.24,-0.2401,-0.2404,-0.246,-0.2483,-0.2487,-0.249,-0.2522,-0.2522,-0.252,-0.249,-0.2483,-0.2476,-0.247,-0.2462,-0.2556,-0.2557,-0.2557,-0.2558,0,-0.2237,-0.2254,-0.2263,-0.2289,-0.2308,-0.2326,-0.2354,-0.2368,-0.238,-0.2389,-0.2399,-0.2419,-0.2445,-0.2453,-0.2478,-0.2456,-0.2476,-0.2483,-0.2472,-0.2459,-0.2456,-0.245,-0.255,-0.2551,-0.2553,-0.2554,0,0,-0.2212,-0.2257,-0.2258,-0.2268,-0.2307,-0.2324,-0.2341,-0.2357,-0.2363,-0.2372,-0.2367,-0.2387,-0.2387,-0.2411,-0.2425,-0.2396,-0.234,-0.2421,-0.2422,-0.2371,-0.2284,-0.2277,-0.227,-0.2328,-0.2326,-0.2325,-0.2297,0,-0.2203,-0.2227,-0.2253,-0.2271,-0.2286,-0.2316,-0.233,-0.2347,-0.2362,-0.2368,-0.2357,-0.2372,-0.2375,-0.2382,-0.2346,-0.2364,-0.2322,-0.2349,-0.2344,-0.2345,-0.2302,-0.2261,-0.208,-0.2038,-0.2291,-0.229,-0.2289,0,-0.219,-0.221,-0.2226,-0.2261,-0.227,-0.2284,-0.2306,-0.2325,-0.2339,-0.235,-0.2338,-0.2351,-0.2329,-0.233,-0.229,-0.2309,-0.2291,-0.2283,-0.2281,-0.2308,-0.2325,-0.2099,-0.2018,-0.2279,-0.228,-0.2281,-0.2282,0,-0.2146,-0.2185,-0.2194,-0.2208,-0.2255,-0.2261,-0.2283,-0.2308,-0.2325,-0.2336,-0.235,-0.2322,-0.2326,-0.2282,-0.2281,-0.2282,-0.2238,-0.2233,-0.2198,-0.2199,-0.2064,-0.2055,-0.2174,-0.2174,-0.2174,-0.2174,-0.2174,0,-0.212,-0.2125,-0.2175,-0.2181,-0.219,-0.2234,-0.2246,-0.2269,-0.2302,-0.231,-0.2332,-0.2332,-0.2314,-0.2298,-0.2271,-0.2225,-0.2221,-0.2185,-0.218,-0.2028,-0.2017,-0.2253,-0.2263,-0.2173,-0.2173,-0.2174,-0.2174,0,-0.2063,-0.2099,-0.2111,-0.2157,-0.2169,-0.2174,-0.2226,-0.2235,-0.2284,-0.2298,-0.2304,-0.2338,-0.232,-0.2304,-0.2257,-0.2223,-0.2177,-0.2156,-0.2,-0.1977,-0.216,-0.2166,-0.2099,-0.2098,-0.2097,-0.2097,-0.2096,0,-0.2031,-0.2033,-0.2078,-0.2081,-0.2098,-0.2122,-0.2134,-0.2202,-0.222,-0.229,-0.2286,-0.2307,-0.229,-0.2246,-0.218,-0.2116,-0.2159,-0.1925,-0.1885,-0.2145,-0.2147,-0.2154,-0.216,-0.1663,-0.1659,-0.1656,-0.1653,0,-0.196,-0.1979,-0.1988,-0.2001,-0.2013,-0.2034,-0.2064,-0.2081,-0.2157,-0.2185,-0.2208,-0.2211,-0.2196,-0.2057,-0.2013,-0.1944,-0.1924,-0.1861,-0.213,-0.1733,-0.1737,-0.174,-0.1759,-0.1625,-0.1627,-0.163,-0.1631,-0.1632,-0.189,-0.188,-0.1892,-0.1892,-0.1912,-0.1914,-0.1892,-0.1945,-0.1963,-0.1971,-0.2054,-0.2008,-0.1982,-0.183,-0.173,-0.1654,-0.1788,-0.1678,-0.1686,-0.1697,-0.1674,-0.1679,-0.1552,-0.1554,-0.1557,-0.1558,-0.156,0,-0.1781,-0.1779,-0.1779,-0.1773,-0.1744,-0.1798,-0.1812,-0.1765,-0.1743,-0.1794,-0.1793,-0.1611,-0.1535,-0.1522,-0.1371,-0.1348,-0.13,-0.1273,-0.1197,-0.1227,-0.1254,-0.1206,-0.096,-0.0959,-0.0957,-0.0955,0,0,-0.172,-0.1674,-0.1676,-0.1591,-0.1589,-0.1512,-0.1492,-0.1454,-0.1454,-0.1397,-0.1384,-0.1481,-0.1508,-0.1246,-0.1168,-0.1049,-0.1125,-0.0989,-0.1471,-0.1413,-0.1438,-0.1489,-0.145,0,0,0,0,0]},{"header":{"parameterUnit":"m.s-1","parameterCategory":2,"la1":30.2991,"la2":30.254,"lo1":-89.0895,"lo2":-89.0444,"dy":0.0017,"dx":0.0017,"nx":28,"ny":28,"refTime":"2024-09-24T21:00:00:Z","depth":"2","parameterNumber":3,"parameterNumberName":"V-component_of_CURRENTS"},"data":[0,0,0,0,0,0,0,0,0,0,0,0,0,0,0,0,0,0,0,0,0,0,0,0,0,0,0,0,0,0,0,0,0,0,0,0,0,0,0,0,0,0,0,0,0,0,0,0,0,0,0,0,0,0,0,0,0,0,-0.0303,-0.0302,0,-0.0232,-0.0231,-0.023,-0.0163,-0.0163,-0.0162,-0.0161,-0.0046,-0.0044,-0.0042,0,0,0,0,0,0,0,0,0,0,0,0,0,-0.0361,-0.036,-0.0303,-0.0302,-0.0301,-0.0232,-0.0231,-0.023,-0.0164,-0.0163,-0.0162,-0.0161,-0.0047,-0.0044,-0.0041,0,0,0,0,0,0,0,0,0,0,0,0,0,-0.0317,-0.036,-0.0303,-0.0259,-0.0255,-0.0232,-0.0231,-0.023,-0.0164,-0.0163,-0.0161,-0.016,-0.0048,-0.0044,-0.0041,-0.0045,0,0,-0.0031,-0.0029,0,0,0,0,0,0,0,0,-0.032,-0.0315,-0.0267,-0.0262,-0.0257,-0.0205,-0.0209,-0.0166,-0.0164,-0.0198,-0.0161,-0.016,-0.0096,-0.0089,-0.0079,-0.004,-0.0035,-0.003,-0.0028,-0.0027,-0.0026,0,0,0,0,0,0,0,-0.0323,-0.0318,-0.0275,-0.0266,-0.026,-0.0237,-0.0229,-0.0201,-0.0154,-0.0195,-0.019,-0.0183,-0.0093,-0.0082,-0.0076,-0.0033,-0.003,-0.0027,-0.0025,-0.0024,0.0029,0.0029,0,0,0,0,0,0,-0.0334,-0.0321,-0.0277,-0.0273,-0.0286,-0.0237,-0.0229,-0.0223,-0.0156,-0.0144,-0.0184,-0.018,-0.0089,-0.008,-0.0071,-0.0061,-0.0027,-0.0024,-0.0022,0.003,0.0029,0.0029,0,0,0,0,0,0,-0.0336,-0.0331,-0.028,-0.0295,-0.0287,-0.0237,-0.0232,-0.0222,-0.0207,-0.0147,-0.0135,-0.0178,-0.0087,-0.0076,-0.0046,-0.0056,-0.0022,-0.0019,0.0031,0.003,0.0029,-0.0047,0,0,0,0,0,0,-0.0338,-0.0332,-0.0335,-0.0296,-0.0286,-0.0271,-0.0233,-0.0222,-0.0205,-0.0199,-0.0138,-0.0126,-0.0086,-0.0052,-0.0043,-0.0051,-0.0016,0.0032,0.003,0.0029,-0.0043,-0.005,-0.0056,0,0,0,0,0,-0.034,-0.035,-0.0336,-0.0331,-0.0291,-0.0272,-0.0266,-0.0226,-0.0206,-0.0206,-0.0164,-0.0128,-0.0053,-0.005,-0.0039,-0.0046,0.0032,0.0031,0.0029,-0.0041,-0.0049,-0.0056,0,0,0,0,0,0,-0.0378,-0.0343,-0.0327,-0.0326,-0.0303,-0.0261,-0.0258,-0.0233,-0.0202,-0.0194,-0.0136,-0.0122,-0.0102,-0.0066,-0.0064,-0.0034,-0.0005,-0.0004,-0.0061,-0.0069,-0.0075,-0.0074,-0.0014,0,0,0,0,0,-0.0389,-0.0386,-0.0351,-0.0351,-0.0343,-0.0303,-0.0291,-0.0267,-0.0232,-0.0217,-0.0175,-0.0133,-0.0102,-0.0079,-0.0049,-0.0031,0.0003,-0.0029,-0.0035,-0.0041,-0.0034,-0.0,-0.0003,0.0024,0.0024,0.0024,0,0,-0.0404,-0.0385,-0.0383,-0.0359,-0.0338,-0.0333,-0.0293,-0.0281,-0.0274,-0.021,-0.0192,-0.0157,-0.0105,-0.0087,-0.0074,-0.0054,-0.0033,-0.0043,-0.0048,-0.0037,-0.0002,-0.0005,-0.0007,0.0023,0.0023,0.0023,0,0,-0.0435,-0.0417,-0.0425,-0.0411,-0.0386,-0.0361,-0.0361,-0.0324,-0.0304,-0.0285,-0.0241,-0.0211,-0.0163,-0.0126,-0.0101,-0.0123,-0.0074,-0.0117,-0.0139,-0.0108,-0.0109,-0.011,-0.0083,-0.0081,-0.0113,-0.0113,-0.0113,0,-0.0456,-0.0458,-0.0426,-0.0431,-0.0422,-0.0377,-0.0384,-0.0362,-0.0321,-0.0305,-0.0288,-0.0218,-0.0179,-0.0146,-0.0152,-0.0136,-0.0111,-0.0116,-0.0116,-0.0116,-0.0116,-0.0087,-0.0084,-0.0117,-0.0116,-0.0116,-0.0115,0,-0.049,-0.0492,-0.0497,-0.0484,-0.0473,-0.0474,-0.0438,-0.0425,-0.0396,-0.0365,-0.0333,-0.0281,-0.0233,-0.0224,-0.0191,-0.0172,-0.0154,-0.0136,-0.0099,-0.0123,-0.0091,-0.0087,-0.0122,-0.0121,-0.012,-0.0119,0,0,-0.0533,-0.0523,-0.0525,-0.0529,-0.0502,-0.0497,-0.0487,-0.046,-0.0448,-0.0408,-0.0387,-0.0338,-0.0302,-0.0272,-0.0231,-0.02,-0.0184,-0.0169,-0.0166,-0.0145,-0.0118,-0.0078,-0.0069,-0.0168,-0.0168,-0.0167,-0.0101,0,-0.0569,-0.0594,-0.0573,-0.0591,-0.06,-0.0558,-0.0551,-0.052,-0.0483,-0.0453,-0.0393,-0.036,-0.0323,-0.0302,-0.0266,-0.0202,-0.0173,-0.0204,-0.0094,-0.009,-0.0054,-0.0062,-0.0053,0.0009,-0.0096,-0.0095,-0.0095,0,-0.0608,-0.0619,-0.0648,-0.0643,-0.0642,-0.0643,-0.0617,-0.0604,-0.0546,-0.0517,-0.0466,-0.0413,-0.0355,-0.0326,-0.0225,-0.0247,-0.019,-0.0141,-0.0137,-0.0065,-0.0041,0.002,0.0022,-0.0086,-0.0087,-0.0087,-0.0088,0,-0.0657,-0.0668,-0.0694,-0.0694,-0.0681,-0.0683,-0.0671,-0.0626,-0.0613,-0.0555,-0.0532,-0.0453,-0.0411,-0.033,-0.0218,-0.0225,-0.0104,-0.0101,-0.0011,-0.0008,0.0041,0.0048,-0.0036,-0.0036,-0.0036,-0.0036,-0.0036,0,-0.0704,-0.0722,-0.0721,-0.0737,-0.0762,-0.0733,-0.0741,-0.0714,-0.0671,-0.0651,-0.0571,-0.0529,-0.041,-0.0319,-0.0228,-0.0095,-0.011,-0.001,0.0015,0.0014,0.0017,-0.0028,-0.0028,-0.0034,-0.0034,-0.0035,-0.0035,0,-0.0754,-0.0752,-0.0782,-0.0785,-0.0788,-0.0806,-0.0796,-0.0794,-0.0747,-0.0717,-0.07,-0.0585,-0.046,-0.0332,-0.0189,-0.0105,0.0013,0.0061,0.0053,0.0076,0.0086,0.0081,0.0158,0.016,0.0162,0.0163,0.0165,0,-0.0781,-0.0803,-0.0828,-0.0849,-0.0854,-0.0872,-0.088,-0.0842,-0.0831,-0.0742,-0.0727,-0.06,-0.0491,-0.026,-0.0088,0.0084,0.0066,0.018,0.0171,0.0091,0.0108,0.01,0.0093,0.0199,0.0201,0.0202,0.0203,0,-0.083,-0.0838,-0.0862,-0.0913,-0.0935,-0.0953,-0.0956,-0.0959,-0.0899,-0.0851,-0.0755,-0.0659,-0.0418,-0.0201,0.0027,0.0125,0.0154,0.0209,0.014,0.0149,0.0136,0.015,0.0141,0.0213,0.0212,0.0211,0.0211,0.021,-0.0858,-0.0891,-0.0924,-0.0968,-0.0997,-0.102,-0.1029,-0.1005,-0.0972,-0.0867,-0.0774,-0.0595,-0.0389,-0.0041,0.012,0.0268,0.0251,0.0289,0.0283,0.0276,0.0269,0.0261,0.0359,0.0359,0.0359,0.0359,0.0359,0,-0.0887,-0.0925,-0.0975,-0.102,-0.1051,-0.1058,-0.1064,-0.1034,-0.0982,-0.0861,-0.0735,-0.0474,-0.022,-0.0019,0.0236,0.0376,0.0354,0.0388,0.0338,0.0328,0.0319,0.0312,0.0414,0.0415,0.0415,0.0415,0,0,-0.0902,-0.0953,-0.098,-0.1043,-0.1077,-0.109,-0.109,-0.1028,-0.0937,-0.0795,-0.065,-0.0456,-0.0205,-0.0017,0.0168,0.0298,0.0266,0.0306,0.0252,0.0162,0.0151,0.0261,0.0239,0,0,0,0,0]}],[{"header":{"parameterUnit":"m.s-1","parameterCategory":2,"la1":30.2991,"la2":30.254,"lo1":-89.0895,"lo2":-89.0444,"dy":0.0017,"dx":0.0017,"nx":28,"ny":28,"refTime":"2024-09-24T21:00:00:Z","depth":"4","parameterNumber":2,"parameterNumberName":"U-component_of_CURRENTS"},"data":[0,0,0,0,0,0,0,0,0,0,0,0,0,0,0,0,0,0,0,0,0,0,0,0,0,0,0,0,0,0,0,0,0,0,0,0,0,0,0,0,0,0,0,0,0,0,0,0,0,0,0,0,0,0,0,0,0,0,-0.1634,-0.1635,0,-0.1724,-0.1725,-0.1726,-0.1764,-0.1763,-0.1763,-0.1763,-0.1787,-0.1788,-0.1789,0,0,0,0,0,0,0,0,0,0,0,0,0,-0.1527,-0.1528,-0.1633,-0.1635,-0.1636,-0.1724,-0.1726,-0.1727,-0.1764,-0.1763,-0.1763,-0.1763,-0.1787,-0.1788,-0.1789,0,0,0,0,0,0,0,0,0,0,0,0,0,-0.1591,-0.1529,-0.1633,-0.1665,-0.1669,-0.1724,-0.1726,-0.1727,-0.1764,-0.1763,-0.1763,-0.1763,-0.1787,-0.1788,-0.1789,-0.1803,0,0,-0.1793,-0.1794,0,0,0,0,0,0,0,0,-0.1587,-0.1594,-0.1659,-0.1663,-0.1667,-0.1732,-0.1697,-0.1749,-0.1764,-0.1728,-0.1763,-0.1763,-0.1763,-0.1766,-0.1785,-0.1804,-0.1805,-0.1793,-0.1794,-0.1794,-0.1795,0,0,0,0,0,0,0,-0.1582,-0.1591,-0.1669,-0.166,-0.1665,-0.1686,-0.1695,-0.1707,-0.1745,-0.1731,-0.1734,-0.1744,-0.1765,-0.1784,-0.1785,-0.1805,-0.1793,-0.1794,-0.1795,-0.1795,-0.1866,-0.1867,0,0,0,0,0,0,-0.157,-0.1587,-0.1667,-0.1672,-0.1626,-0.1688,-0.1698,-0.1712,-0.1746,-0.1752,-0.1744,-0.1745,-0.1782,-0.1784,-0.1786,-0.1832,-0.1794,-0.1796,-0.1796,-0.1864,-0.1866,-0.1867,0,0,0,0,0,0,-0.1567,-0.1576,-0.1663,-0.1631,-0.1644,-0.169,-0.1706,-0.1714,-0.1756,-0.1757,-0.1761,-0.178,-0.1782,-0.1785,-0.1828,-0.1831,-0.1796,-0.1797,-0.1863,-0.1865,-0.1866,-0.1904,0,0,0,0,0,0,-0.1564,-0.1575,-0.1596,-0.1631,-0.1645,-0.1702,-0.1706,-0.1716,-0.1761,-0.1764,-0.1789,-0.179,-0.1782,-0.1827,-0.1829,-0.1833,-0.1798,-0.1862,-0.1864,-0.1866,-0.1902,-0.1907,-0.1912,0,0,0,0,0,-0.156,-0.1582,-0.1596,-0.1607,-0.1667,-0.1703,-0.1713,-0.1745,-0.1763,-0.1782,-0.1813,-0.179,-0.184,-0.183,-0.1832,-0.1836,-0.1861,-0.1863,-0.1866,-0.1899,-0.1906,-0.1911,0,0,0,0,0,0,-0.1549,-0.1589,-0.1605,-0.164,-0.1673,-0.1709,-0.1738,-0.1762,-0.1805,-0.1816,-0.1819,-0.1823,-0.1859,-0.185,-0.1838,-0.1862,-0.1841,-0.1844,-0.1865,-0.1871,-0.1876,-0.1858,-0.1799,0,0,0,0,0,-0.1555,-0.1582,-0.1619,-0.165,-0.1668,-0.1711,-0.1737,-0.176,-0.1795,-0.1816,-0.1836,-0.1854,-0.1869,-0.1875,-0.1889,-0.1911,-0.1883,-0.191,-0.1916,-0.192,-0.1908,-0.188,-0.1881,-0.1875,-0.1875,-0.1875,0,0,-0.1561,-0.1586,-0.1604,-0.165,-0.1681,-0.171,-0.1727,-0.1771,-0.1797,-0.181,-0.1863,-0.1882,-0.1883,-0.1908,-0.192,-0.1902,-0.1911,-0.1923,-0.1926,-0.1912,-0.1883,-0.1883,-0.1883,-0.1877,-0.1877,-0.1876,0,0,-0.157,-0.1608,-0.1629,-0.1658,-0.1707,-0.173,-0.1748,-0.1801,-0.1828,-0.1881,-0.1892,-0.1919,-0.1952,-0.1945,-0.1945,-0.1987,-0.1947,-0.1993,-0.1993,-0.1967,-0.1966,-0.1966,-0.1945,-0.1942,-0.1984,-0.1984,-0.1984,0,-0.1578,-0.1607,-0.1642,-0.1668,-0.1693,-0.174,-0.1765,-0.18,-0.1863,-0.1878,-0.19,-0.1948,-0.196,-0.1963,-0.1984,-0.1994,-0.1978,-0.1969,-0.1971,-0.197,-0.1968,-0.1947,-0.1943,-0.1986,-0.1986,-0.1986,-0.1986,0,-0.1591,-0.1627,-0.1644,-0.1687,-0.1719,-0.1752,-0.1795,-0.1835,-0.1878,-0.1903,-0.1941,-0.1969,-0.1983,-0.1996,-0.2009,-0.2003,-0.1996,-0.1988,-0.1951,-0.197,-0.1947,-0.1943,-0.1989,-0.1989,-0.1988,-0.1987,0,0,-0.157,-0.164,-0.1648,-0.1671,-0.1733,-0.1757,-0.1801,-0.184,-0.1863,-0.1917,-0.1935,-0.1976,-0.199,-0.1991,-0.2004,-0.199,-0.1985,-0.1991,-0.1989,-0.1961,-0.1932,-0.1846,-0.1832,-0.1978,-0.1977,-0.1977,-0.1925,0,-0.1571,-0.1615,-0.1651,-0.1696,-0.1722,-0.1772,-0.1804,-0.1846,-0.1886,-0.1918,-0.1935,-0.1965,-0.1985,-0.2003,-0.1992,-0.1996,-0.1972,-0.1999,-0.1925,-0.1922,-0.1834,-0.1823,-0.1974,-0.1921,-0.192,-0.1919,-0.1918,0,-0.1562,-0.1595,-0.164,-0.1697,-0.1713,-0.1749,-0.1799,-0.1835,-0.1877,-0.1907,-0.1926,-0.1949,-0.1957,-0.197,-0.1947,-0.1968,-0.195,-0.1941,-0.1939,-0.1834,-0.1825,-0.1895,-0.1909,-0.191,-0.191,-0.1911,-0.1912,0,-0.1514,-0.1582,-0.1617,-0.164,-0.1714,-0.1742,-0.1782,-0.1832,-0.1859,-0.1899,-0.1921,-0.1926,-0.1945,-0.1918,-0.1926,-0.1935,-0.1891,-0.1891,-0.1785,-0.178,-0.1858,-0.1859,-0.1845,-0.1845,-0.1845,-0.1845,-0.1845,0,-0.1483,-0.1514,-0.1604,-0.1623,-0.1662,-0.1722,-0.1762,-0.18,-0.1848,-0.1863,-0.1913,-0.1914,-0.1936,-0.1926,-0.1909,-0.1832,-0.1869,-0.1769,-0.175,-0.1879,-0.1883,-0.1855,-0.1857,-0.1843,-0.1844,-0.1844,-0.1844,0,-0.142,-0.1483,-0.1529,-0.1615,-0.1643,-0.1672,-0.1753,-0.1769,-0.1833,-0.1852,-0.1866,-0.1909,-0.1889,-0.1895,-0.1859,-0.1804,-0.1744,-0.1705,-0.1849,-0.1841,-0.1652,-0.1657,-0.1557,-0.1554,-0.155,-0.1548,-0.1546,0,-0.1387,-0.1408,-0.1511,-0.1536,-0.1581,-0.1638,-0.1666,-0.1747,-0.1761,-0.1829,-0.1818,-0.1841,-0.1852,-0.172,-0.1746,-0.1678,-0.1664,-0.162,-0.1623,-0.1626,-0.1618,-0.1628,-0.1637,-0.154,-0.154,-0.1539,-0.1538,0,-0.1317,-0.1372,-0.1408,-0.1464,-0.1509,-0.1546,-0.1596,-0.1595,-0.1672,-0.1756,-0.1714,-0.1691,-0.1669,-0.1637,-0.1604,-0.156,-0.1639,-0.1586,-0.1592,-0.1595,-0.1605,-0.1602,-0.1615,-0.1527,-0.1529,-0.153,-0.153,0,-0.1263,-0.1274,-0.1331,-0.1361,-0.1419,-0.1421,-0.1467,-0.1474,-0.1501,-0.1584,-0.1566,-0.1593,-0.1648,-0.1575,-0.1542,-0.1495,-0.1468,-0.1413,-0.1427,-0.144,-0.1427,-0.1425,-0.1254,0,0,0,0,0,-0.1195,-0.1189,-0.1216,-0.1243,-0.1296,-0.1323,-0.1396,-0.1443,-0.1529,-0.1459,-0.1506,-0.1477,-0.143,-0.1448,-0.1371,-0.1487,-0.1475,-0.1392,-0.1421,-0.1466,-0.1479,-0.1476,0,0,0,0,0,0,-0.1147,-0.117,-0.1175,-0.1131,-0.1125,-0.1163,-0.1204,-0.1267,-0.1235,-0.1331,-0.1309,-0.1387,-0.136,-0.1445,-0.1338,-0.1343,-0.1331,-0.1423,-0.1419,-0.1459,-0.147,-0.1481,-0.1483,0,0,0,0,0]},{"header":{"parameterUnit":"m.s-1","parameterCategory":2,"la1":30.2991,"la2":30.254,"lo1":-89.0895,"lo2":-89.0444,"dy":0.0017,"dx":0.0017,"nx":28,"ny":28,"refTime":"2024-09-24T21:00:00:Z","depth":"4","parameterNumber":3,"parameterNumberName":"V-component_of_CURRENTS"},"data":[0,0,0,0,0,0,0,0,0,0,0,0,0,0,0,0,0,0,0,0,0,0,0,0,0,0,0,0,0,0,0,0,0,0,0,0,0,0,0,0,0,0,0,0,0,0,0,0,0,0,0,0,0,0,0,0,0,0,-0.0151,-0.0151,0,-0.0112,-0.0112,-0.0111,-0.0065,-0.0065,-0.0064,-0.0063,0.0029,0.0031,0.0032,0,0,0,0,0,0,0,0,0,0,0,0,0,-0.0173,-0.0173,-0.0152,-0.0151,-0.0151,-0.0112,-0.0112,-0.0111,-0.0066,-0.0065,-0.0064,-0.0063,0.0028,0.003,0.0033,0,0,0,0,0,0,0,0,0,0,0,0,0,-0.0152,-0.0173,-0.0152,-0.0123,-0.012,-0.0112,-0.0112,-0.0111,-0.0066,-0.0065,-0.0064,-0.0063,0.0028,0.003,0.0033,0.0029,0,0,0.0041,0.0042,0,0,0,0,0,0,0,0,-0.0153,-0.0151,-0.0128,-0.0125,-0.0122,-0.0093,-0.0086,-0.0062,-0.0066,-0.0086,-0.0063,-0.0062,-0.0008,-0.0002,0.0002,0.0033,0.0037,0.0041,0.0043,0.0044,0.0045,0,0,0,0,0,0,0,-0.0155,-0.0153,-0.0136,-0.0127,-0.0124,-0.0108,-0.0104,-0.0081,-0.0052,-0.0085,-0.0081,-0.0077,-0.0005,-0.0,0.0005,0.0038,0.0041,0.0044,0.0045,0.0046,0.0077,0.0076,0,0,0,0,0,0,-0.0162,-0.0154,-0.0137,-0.0135,-0.0135,-0.0108,-0.0104,-0.0103,-0.0054,-0.0046,-0.0078,-0.0075,-0.0006,0.0002,0.0009,0.0012,0.0044,0.0047,0.0048,0.0077,0.0076,0.0076,0,0,0,0,0,0,-0.0162,-0.0161,-0.0139,-0.0143,-0.0139,-0.0109,-0.0109,-0.0103,-0.0095,-0.0049,-0.004,-0.0076,-0.0004,0.0005,0.0025,0.0016,0.0048,0.005,0.0078,0.0077,0.0076,0.0016,0,0,0,0,0,0,-0.0163,-0.0161,-0.0167,-0.0144,-0.0139,-0.0139,-0.0109,-0.0103,-0.0094,-0.009,-0.0045,-0.0035,-0.0003,0.002,0.0027,0.002,0.0053,0.0079,0.0078,0.0076,0.0019,0.0013,0.0008,0,0,0,0,0,-0.0164,-0.0175,-0.0168,-0.0165,-0.0147,-0.0139,-0.0136,-0.011,-0.0095,-0.0098,-0.0068,-0.0036,0.0016,0.0021,0.003,0.0024,0.008,0.0078,0.0077,0.0022,0.0014,0.0008,0,0,0,0,0,0,-0.0188,-0.0171,-0.0162,-0.0167,-0.0157,-0.0131,-0.0133,-0.0117,-0.0097,-0.0091,-0.0046,-0.0035,-0.0023,0.0005,0.0011,0.0026,0.0053,0.0052,0.0008,0.0001,-0.0004,0.0003,0.0055,0,0,0,0,0,-0.0198,-0.0201,-0.0182,-0.0188,-0.0184,-0.0161,-0.0156,-0.014,-0.0118,-0.0108,-0.0079,-0.0048,-0.0027,-0.0008,0.0012,0.0023,0.0062,0.0024,0.0018,0.0013,0.0024,0.0063,0.0063,0.0069,0.0069,0.0069,0,0,-0.0209,-0.0201,-0.0203,-0.0194,-0.0183,-0.0182,-0.0155,-0.0152,-0.0149,-0.0102,-0.0092,-0.007,-0.0031,-0.0021,-0.0012,0.0006,0.0029,0.0011,0.0006,0.002,0.0061,0.0061,0.0061,0.0068,0.0068,0.0069,0,0,-0.0232,-0.0227,-0.0235,-0.023,-0.0219,-0.0204,-0.0206,-0.0186,-0.0175,-0.0168,-0.0135,-0.0115,-0.0084,-0.0055,-0.0036,-0.0061,-0.0008,-0.006,-0.0073,-0.0036,-0.0036,-0.0035,0.0006,0.0011,-0.0056,-0.0056,-0.0056,0,-0.0246,-0.0251,-0.0238,-0.0243,-0.0239,-0.0216,-0.0221,-0.0212,-0.0189,-0.0177,-0.0172,-0.0123,-0.0098,-0.0068,-0.008,-0.0072,-0.004,-0.005,-0.0042,-0.004,-0.0039,0.0004,0.001,-0.0059,-0.0059,-0.0058,-0.0058,0,-0.0269,-0.0274,-0.0281,-0.0277,-0.0274,-0.0277,-0.0261,-0.0256,-0.0242,-0.0223,-0.0201,-0.0171,-0.0133,-0.0133,-0.0113,-0.0091,-0.007,-0.006,-0.0023,-0.0043,0.0003,0.001,-0.0063,-0.0062,-0.0061,-0.0061,0,0,-0.0294,-0.0295,-0.0298,-0.0299,-0.0291,-0.029,-0.0289,-0.0272,-0.0259,-0.0245,-0.0222,-0.0201,-0.0177,-0.0154,-0.0129,-0.01,-0.0072,-0.0078,-0.0074,-0.0033,0.0016,0.0009,0.0017,-0.0061,-0.006,-0.0059,0.004,0,-0.0313,-0.0331,-0.0324,-0.0336,-0.034,-0.0321,-0.0319,-0.0302,-0.0281,-0.0256,-0.0221,-0.0196,-0.0187,-0.0171,-0.0142,-0.0088,-0.0053,-0.0099,0.0028,0.0032,0.003,0.0025,-0.0055,0.0046,0.0048,0.005,0.0051,0,-0.0332,-0.034,-0.036,-0.0356,-0.0356,-0.0363,-0.0343,-0.0337,-0.0297,-0.0278,-0.0243,-0.0209,-0.0165,-0.0159,-0.0066,-0.0096,-0.0044,-0.0003,0.0002,0.0026,0.0038,0.0073,0.0065,0.0064,0.0063,0.0062,0.0061,0,-0.0349,-0.0361,-0.0377,-0.0379,-0.0376,-0.038,-0.0376,-0.0347,-0.0339,-0.029,-0.0272,-0.0209,-0.0179,-0.0109,-0.0034,-0.0045,0.0074,0.0073,0.0121,0.0122,0.0127,0.0125,0.0145,0.0145,0.0145,0.0145,0.0145,0,-0.0364,-0.0376,-0.0391,-0.0401,-0.0419,-0.0406,-0.0411,-0.0392,-0.0362,-0.0348,-0.0289,-0.0259,-0.0167,-0.0091,-0.0022,0.0073,0.0087,0.0127,0.0147,0.0097,0.0091,0.0132,0.013,0.0149,0.0148,0.0147,0.0146,0,-0.0378,-0.0387,-0.0409,-0.0422,-0.0431,-0.0446,-0.0453,-0.045,-0.0415,-0.0392,-0.038,-0.029,-0.0192,-0.0091,0.0035,0.0084,0.0179,0.0211,0.0159,0.0174,0.0202,0.0195,0.0279,0.0279,0.028,0.028,0.0281,0,-0.0384,-0.04,-0.0438,-0.0462,-0.0475,-0.0496,-0.0511,-0.0488,-0.048,-0.0413,-0.0401,-0.0299,-0.0233,-0.005,0.0049,0.0199,0.0209,0.0264,0.0223,0.0204,0.0216,0.0208,0.02,0.0281,0.0281,0.0282,0.0282,0,-0.0396,-0.0418,-0.044,-0.0498,-0.053,-0.0552,-0.0567,-0.0564,-0.0525,-0.0495,-0.0408,-0.0305,-0.0187,-0.0052,0.0068,0.0168,0.023,0.0269,0.0268,0.023,0.0208,0.0218,0.021,0.0283,0.0283,0.0283,0.0283,0,-0.0408,-0.0435,-0.0477,-0.0522,-0.0568,-0.0594,-0.0596,-0.0575,-0.0555,-0.0476,-0.0449,-0.0312,-0.0229,-0.0067,0.0041,0.0143,0.0159,0.0182,0.0186,0.0185,0.0118,0.0074,0.0133,0,0,0,0,0,-0.0415,-0.045,-0.0498,-0.0546,-0.0592,-0.0614,-0.0625,-0.0615,-0.0578,-0.0524,-0.0483,-0.037,-0.0191,-0.0105,-0.0005,0.0036,0.0166,0.0155,0.0191,0.0293,0.0291,0.0226,0,0,0,0,0,0,-0.0422,-0.0471,-0.0496,-0.0554,-0.0591,-0.0632,-0.0639,-0.0616,-0.0573,-0.0523,-0.0425,-0.0358,-0.0183,-0.0252,-0.0007,0.0026,0.0059,0.0245,0.0247,0.0294,0.0292,0.0291,0.0223,0,0,0,0,0]}]]